Huntsville, AL

12:17 AM CDT on April 29, 2017 (GMT -0500)
Huntsville International

Weather History for KHSV - May, 2013

Change the Weather History Date:

Monday, May 6, 2013

  Actual Average Record
Temperature  
Mean Temperature 54 °F 68 °F  
Max Temperature 58 °F 79 °F 95 °F (1952)
Min Temperature 50 °F 56 °F 37 °F (1944)
Degree Days  
Heating Degree Days 11 1  
Month to date heating degree days 47 11  
Since 1 July heating degree days 3018 2985  
Cooling Degree Days 0 4  
Month to date cooling degree days 6 22  
Year to date cooling degree days 65 94  
Growing Degree Days 4 (Base 50)    
Moisture  
Dew Point 50 °F    
Average Humidity 90    
Maximum Humidity 100    
Minimum Humidity 80    
Precipitation  
Precipitation 1.38 in 0.17 in 4.06 in (2003)
Month to date precipitation 5.08 1.05  
Year to date precipitation 27.60 20.31  
Snow  
Snow 0.00 in - - ()
Month to date snowfall 0.0  
Since 1 July snowfall 0.7  
Snow Depth 0.00 in    
Sea Level Pressure  
Sea Level Pressure 29.85 in    
Wind  
Wind Speed 5 mph (WSW)    
Max Wind Speed 23 mph    
Max Gust Speed 30 mph    
Visibility 5 miles    
Events Fog , Rain    
T = Trace of Precipitation, MM = Missing Value Source: NWS Daily Summary

Daily Weather History Graph

Daily Weather History Graph

Search for Another Location

Airport or City:

Trip Planner

Search our weather history database for the weather conditions in past years. The results will help you decide how hot, cold, wet, or windy it might be!

Date:

Astronomy

May. 06, 2013 Rise Set
Actual Time 5:51 AM CDT 7:36 PM CDT
Civil Twilight 5:24 AM CDT 8:03 PM CDT
Nautical Twilight 4:51 AM CDT 8:36 PM CDT
Astronomical Twilight 4:16 AM CDT 9:11 PM CDT
Moon 3:45 AM CDT (5/6) 4:42 PM CDT (5/6)
Length of Visible Light 14h 39m
Length of Day
13h 44m
Waning Crescent, 11% of the Moon is Illuminated
May 6
Waning Crescent
May 9
New
May 17
First Quarter
May 24
Full
May 31
Last Quarter

Hourly Weather History & Observations

Time (CDT) Temp. Dew Point Humidity Pressure Visibility Wind Dir Wind Speed Gust Speed Precip Events Conditions
12:53 AM 51.1 °F 48.9 °F 92% 29.83 in 10.0 mi North - - 0.00 in Rain Light Rain
1:53 AM 50.0 °F 48.0 °F 93% 29.81 in 10.0 mi WNW 11.5 mph 20.7 mph 0.04 in Rain Light Rain
2:53 AM 50.0 °F 48.0 °F 93% 29.81 in 9.0 mi WNW 9.2 mph - 0.03 in Rain Light Rain
3:26 AM 50.0 °F 48.2 °F 94% 29.81 in 10.0 mi WNW 6.9 mph - 0.02 in Rain Light Rain
3:53 AM 50.0 °F 48.9 °F 96% 29.81 in 10.0 mi West 5.8 mph - 0.02 in Rain Light Rain
4:05 AM 50.0 °F 48.2 °F 94% 29.81 in 10.0 mi West 9.2 mph - 0.00 in Rain Light Rain
4:53 AM 50.0 °F 48.0 °F 93% 29.81 in 7.0 mi West 10.4 mph - 0.01 in Rain Light Rain
5:23 AM 50.0 °F 48.2 °F 94% 29.82 in 2.5 mi West 9.2 mph - 0.04 in Rain Heavy Rain
5:40 AM 50.0 °F 48.2 °F 94% 29.82 in 3.0 mi West 11.5 mph 54.1 mph 0.09 in Rain Rain
5:53 AM 50.0 °F 48.9 °F 96% 29.82 in 2.5 mi West 11.5 mph - 0.11 in Rain Light Rain
6:08 AM 50.0 °F 48.2 °F 94% 29.82 in 2.5 mi WSW 10.4 mph - 0.02 in Rain Rain
6:53 AM 50.0 °F 48.9 °F 96% 29.83 in 3.0 mi WSW 10.4 mph - 0.11 in Rain Rain
7:38 AM 51.8 °F 48.2 °F 88% 29.83 in 2.5 mi WSW 12.7 mph - 0.03 in Rain Rain
7:46 AM 51.8 °F 48.2 °F 88% 29.83 in 2.5 mi WSW 11.5 mph - 0.04 in Rain Light Rain
7:53 AM 51.1 °F 48.9 °F 92% 29.83 in 2.5 mi WSW 9.2 mph - 0.05 in Rain Rain
8:53 AM 51.1 °F 50.0 °F 96% 29.84 in 2.5 mi WSW 10.4 mph - 0.06 in Rain Light Rain
9:03 AM 51.8 °F 50.0 °F 94% 29.84 in 4.0 mi WSW 11.5 mph - 0.00 in Rain Light Rain
9:10 AM 51.8 °F 50.0 °F 94% 29.84 in 3.0 mi WSW 10.4 mph - 0.01 in Rain Light Rain
9:29 AM 51.8 °F 50.0 °F 94% 29.84 in 2.5 mi WSW 10.4 mph - 0.02 in Rain Rain
9:53 AM 52.0 °F 51.1 °F 97% 29.84 in 2.5 mi WSW 9.2 mph - 0.05 in Rain Rain
10:22 AM 51.8 °F 51.8 °F 100% 29.85 in 2.0 mi WSW 9.2 mph - 0.04 in Rain Rain
10:35 AM 51.8 °F 51.8 °F 100% 29.85 in 1.5 mi WSW 8.1 mph - 0.06 in Rain Rain
10:53 AM 53.1 °F 52.0 °F 96% 29.85 in 1.5 mi WSW 6.9 mph - 0.12 in Rain Rain
11:53 AM 54.0 °F 53.1 °F 97% 29.85 in 1.5 mi WSW 5.8 mph - 0.14 in Rain Rain
12:02 PM 53.6 °F 53.6 °F 100% 29.85 in 2.0 mi WSW 4.6 mph - 0.02 in Rain Rain
12:44 PM 53.6 °F 53.6 °F 100% 29.85 in 1.5 mi SW 4.6 mph - 0.17 in Rain Heavy Rain
12:53 PM 54.0 °F 52.0 °F 93% 29.86 in 1.2 mi North 9.2 mph - 0.20 in Rain Heavy Rain
1:00 PM 53.6 °F 51.8 °F 94% 29.86 in 1.5 mi ESE 4.6 mph - 0.11 in Rain Heavy Rain
1:22 PM 53.6 °F 51.8 °F 94% 29.86 in 2.0 mi SE 3.5 mph - 0.17 in Rain Rain
1:53 PM 53.1 °F 51.1 °F 93% 29.86 in 3.0 mi South 4.6 mph - 0.27 in Rain Rain
2:53 PM 55.0 °F 51.1 °F 86% 29.85 in 10.0 mi Calm Calm - 0.09 in   Overcast
3:53 PM 55.9 °F 51.1 °F 84% 29.84 in 10.0 mi Calm Calm - N/A   Overcast
4:53 PM 57.0 °F 53.1 °F 87% 29.85 in 10.0 mi SSW 3.5 mph - 0.00 in   Mostly Cloudy
5:53 PM 57.0 °F 52.0 °F 83% 29.85 in 10.0 mi Calm Calm - N/A   Mostly Cloudy
6:53 PM 55.9 °F 53.1 °F 90% 29.87 in 10.0 mi Calm Calm - 0.02 in   Mostly Cloudy
7:53 PM 54.0 °F 52.0 °F 93% 29.88 in 10.0 mi Calm Calm - N/A   Mostly Cloudy
8:53 PM 51.1 °F 50.0 °F 96% 29.90 in 8.0 mi Calm Calm - N/A Fog Patches of Fog
9:53 PM 53.1 °F 52.0 °F 96% 29.92 in 4.0 mi Calm Calm - N/A   Overcast
10:40 PM 53.6 °F 51.8 °F 94% 29.93 in 4.0 mi Calm Calm - 0.05 in Rain Rain
10:53 PM 53.1 °F 52.0 °F 96% 29.92 in 8.0 mi Calm Calm - 0.06 in Rain Light Rain
11:53 PM 52.0 °F 51.1 °F 97% 29.92 in 9.0 mi Calm Calm - 0.00 in   Scattered Clouds